Location: Buch
(49.7331°N, 12.1098°E)
Time: 23:40:25
(UTC+00:00)

CZ-4C R/B - Pass Details

Date: 12 May 2021
Orbit: 609 x 1393 km, 63.4° (Epoch: 18 June)

Event Time Altitude Azimuth Distance (km) Brightness Sun altitude
Rises 19:12:57 0° 316° (NW) 3,719 7.8 -4.5°
Reaches altitude 10° 19:15:23 10° 319° (NW) 2,874 6.7 -4.8°
Maximum altitude 19:22:23 74° 45° (NE) 1,249 3.1 -5.7°
Drops below altitude 10° 19:30:38 10° 130° (SE) 3,366 4.6 -6.8°
Enters shadow 19:31:15 - 131° (SE) 3,573 4.7 -6.8°
